Weather History for Omaha Offutt, NE

Change the Weather History Date:

Monday, May 12, 2014

  Actual Average Record
Temperature  
Mean Temperature 55 °F -  
Max Temperature 62 °F 70 °F 88 °F (2007)
Min Temperature 48 °F 50 °F 32 °F (2013)
Degree Days  
Heating Degree Days 10    
Growing Degree Days 5 (Base 50)    
Moisture  
Dew Point 54 °F    
Average Humidity 100    
Maximum Humidity 100    
Minimum Humidity 93    
Precipitation  
Precipitation 0.39 in - - ()
Sea Level Pressure  
Sea Level Pressure 29.80 in    
Wind  
Wind Speed 10 mph (NW)    
Max Wind Speed 23 mph    
Max Gust Speed 32 mph    
Visibility 8 miles    
Events Rain , Thunderstorm    
Averages and records for this station are not official NWS values.
T = Trace of Precipitation, MM = Missing Value Source: NWS Daily Summary

Daily Weather History Graph

Daily Weather History Graph

Search for Another Location

Airport:

Trip Planner

Search our weather history database for the weather conditions in past years. The results will help you decide how hot, cold, wet, or windy it might be!

Date:

Astronomy

May. 12, 2014 Rise Set
Actual Time 6:08 AM CDT 8:32 PM CDT
Civil Twilight 5:37 AM CDT 9:03 PM CDT
Nautical Twilight 4:59 AM CDT 9:41 PM CDT
Astronomical Twilight 4:16 AM CDT 10:24 PM CDT
Moon 6:30 PM CDT (5/12) 4:49 AM CDT (5/12)
Length of Visible Light 15h 25m
Length of Day
14h 23m
Waxing Gibbous, 95% of the Moon is Illuminated
May 12
Waxing Gibbous
May 14
Full
May 21
Last Quarter
May 28
New
Jun 5
First Quarter

Hourly Weather History & Observations

Time (CDT) Temp. Dew Point Humidity Pressure Visibility Wind Dir Wind Speed Gust Speed Precip Events Conditions
12:42 AM 62.6 °F 62.6 °F 100% 29.68 in 10.0 mi NNW 3.5 mph - N/A   Mostly Cloudy
12:58 AM 62.4 °F 62.4 °F 100% 29.69 in 10.0 mi West 3.5 mph - 0.01 in   Mostly Cloudy
1:17 AM 62.6 °F 62.6 °F 100% 29.70 in 10.0 mi Calm Calm - N/A   Mostly Cloudy
1:58 AM 60.8 °F 60.8 °F 100% 29.69 in 9.0 mi West 6.9 mph - N/A   Overcast
2:13 AM 60.8 °F 60.8 °F 100% 29.68 in 8.0 mi ENE 8.1 mph - N/A   Overcast
2:20 AM 60.8 °F 60.8 °F 100% 29.67 in 9.0 mi NNE 6.9 mph - N/A Rain Light Rain
2:37 AM 60.8 °F 60.8 °F 100% 29.66 in 8.0 mi NNW 6.9 mph - N/A   Overcast
2:43 AM 60.8 °F 60.8 °F 100% 29.66 in 8.0 mi NW 10.4 mph - N/A   Overcast
2:59 AM 59.9 °F 59.9 °F 100% 29.67 in 7.0 mi WNW 11.5 mph - 0.00 in   Overcast
3:15 AM 59.0 °F 59.0 °F 100% 29.68 in 4.0 mi NW 10.4 mph - N/A Rain Light Rain
3:21 AM 59.0 °F 59.0 °F 100% 29.68 in 5.0 mi NW 12.7 mph - N/A Rain Light Rain
3:26 AM 59.0 °F 59.0 °F 100% 29.68 in 6.0 mi NW 10.4 mph - N/A Rain Light Rain
3:33 AM 59.0 °F 59.0 °F 100% 29.69 in 7.0 mi NW 12.7 mph - N/A Rain Light Rain
3:44 AM 57.2 °F 57.2 °F 100% 29.67 in 10.0 mi NNW 10.4 mph - N/A   Light Drizzle
3:58 AM 57.6 °F 57.6 °F 100% 29.69 in 10.0 mi NW 9.2 mph - 0.00 in Rain Light Rain
4:58 AM 57.6 °F 57.6 °F 100% 29.67 in 10.0 mi North 5.8 mph - 0.01 in   Overcast
5:02 AM 57.2 °F 57.2 °F 100% 29.67 in 8.0 mi North 5.8 mph - N/A Rain , Thunderstorm Light Thunderstorms and Rain
5:30 AM 57.2 °F 57.2 °F 100% 29.64 in 2.0 mi NNE 10.4 mph - N/A Rain , Thunderstorm Heavy Thunderstorms and Rain
5:41 AM 57.2 °F 57.2 °F 100% 29.64 in 3.0 mi NW 12.7 mph - N/A Rain , Thunderstorm Light Rain
5:46 AM 57.2 °F 57.2 °F 100% 29.67 in 6.0 mi WNW 10.4 mph - N/A Rain Light Rain
5:55 AM 57.2 °F 57.2 °F 100% 29.66 in 10.0 mi WNW 9.2 mph - N/A   Overcast
5:58 AM 56.8 °F 56.8 °F 100% 29.67 in 10.0 mi WNW 10.4 mph - 0.35 in   Overcast
6:08 AM 57.2 °F 57.2 °F 100% 29.67 in 10.0 mi NW 8.1 mph - N/A   Overcast
6:18 AM 57.2 °F 57.2 °F 100% 29.67 in 9.0 mi WNW 10.4 mph - N/A   Overcast
6:19 AM 57.2 °F 57.2 °F 100% 29.67 in 8.0 mi WNW 11.5 mph - N/A Rain Light Rain
6:34 AM 57.2 °F 57.2 °F 100% 29.68 in 10.0 mi WNW 11.5 mph - N/A Rain Light Rain
6:37 AM 57.2 °F 57.2 °F 100% 29.67 in 10.0 mi NW 11.5 mph - N/A   Overcast
6:58 AM 56.1 °F 56.1 °F 100% 29.69 in 10.0 mi WNW 12.7 mph - 0.00 in   Overcast
7:33 AM 55.4 °F 55.4 °F 100% 29.73 in 10.0 mi Variable 6.9 mph - N/A   Overcast
7:58 AM 56.1 °F 56.1 °F 100% 29.76 in 10.0 mi WNW 8.1 mph - N/A   Overcast
8:01 AM 55.4 °F 55.4 °F 100% 29.74 in 10.0 mi WNW 9.2 mph - N/A   Overcast
8:31 AM 55.4 °F 55.4 °F 100% 29.72 in 10.0 mi NW 8.1 mph - N/A   Overcast
9:55 AM 55.4 °F 55.4 °F 100% 29.76 in 4.0 mi NW 11.5 mph - N/A   Light Drizzle
9:58 AM 56.1 °F 56.1 °F 100% 29.77 in 3.0 mi WNW 11.5 mph - 0.00 in   Light Drizzle
10:06 AM 55.4 °F 55.4 °F 100% 29.76 in 3.0 mi NW 13.8 mph - N/A   Overcast
10:16 AM 55.4 °F 55.4 °F 100% 29.77 in 3.0 mi WNW 9.2 mph - N/A   Overcast
10:26 AM 55.4 °F 55.4 °F 100% 29.77 in 4.0 mi WNW 9.2 mph - N/A   Overcast
10:33 AM 55.4 °F 55.4 °F 100% 29.77 in 4.0 mi NW 6.9 mph - N/A Rain Light Rain
10:38 AM 55.4 °F 55.4 °F 100% 29.77 in 5.0 mi NW 9.2 mph - N/A Rain Light Rain
10:42 AM 55.4 °F 55.4 °F 100% 29.77 in 7.0 mi WNW 11.5 mph - N/A   Overcast
10:47 AM 55.4 °F 55.4 °F 100% 29.77 in 9.0 mi WNW 11.5 mph - N/A   Overcast
10:56 AM 55.4 °F 55.4 °F 100% 29.78 in 8.0 mi NW 8.1 mph - 0.00 in   Overcast
11:21 AM 55.4 °F 55.4 °F 100% 29.78 in 9.0 mi NW 10.4 mph - N/A Rain Light Rain
11:30 AM 55.4 °F 55.4 °F 100% 29.78 in 7.0 mi NW 10.4 mph - N/A   Overcast
11:35 AM 55.4 °F 55.4 °F 100% 29.79 in 6.0 mi NW 9.2 mph - N/A   Overcast
11:38 AM 55.4 °F 55.4 °F 100% 29.79 in 6.0 mi WNW 11.5 mph - N/A Rain Light Rain
11:53 AM 53.6 °F 53.6 °F 100% 29.79 in 4.0 mi NW 11.5 mph - N/A Rain Rain
11:58 AM 54.3 °F 54.3 °F 100% 29.80 in 4.0 mi NW 11.5 mph - 0.00 in Rain Light Rain
12:03 PM 53.6 °F 53.6 °F 100% 29.79 in 4.0 mi NW 11.5 mph - N/A   Overcast
12:04 PM 53.6 °F 53.6 °F 100% 29.79 in 4.0 mi NW 10.4 mph - N/A Rain Light Rain
12:09 PM 53.6 °F 53.6 °F 100% 29.79 in 4.0 mi NW 13.8 mph - N/A Rain Light Rain
12:14 PM 53.6 °F 53.6 °F 100% 29.79 in 5.0 mi NW 15.0 mph 20.7 mph N/A Rain Rain
12:24 PM 53.6 °F 53.6 °F 100% 29.80 in 6.0 mi NW 11.5 mph 20.7 mph N/A Rain Light Rain
12:29 PM 53.6 °F 53.6 °F 100% 29.80 in 6.0 mi NW 10.4 mph - N/A Rain Light Rain
12:46 PM 53.6 °F 53.6 °F 100% 29.81 in 8.0 mi NW 10.4 mph - N/A   Overcast
12:51 PM 53.6 °F 53.6 °F 100% 29.81 in 9.0 mi WNW 13.8 mph - N/A   Overcast
12:58 PM 53.8 °F 53.8 °F 100% 29.82 in 10.0 mi NW 15.0 mph - 0.01 in   Overcast
1:02 PM 53.6 °F 53.6 °F 100% 29.81 in 9.0 mi NW 17.3 mph 21.9 mph N/A   Overcast
1:07 PM 53.6 °F 53.6 °F 100% 29.82 in 7.0 mi NW 13.8 mph 21.9 mph N/A   Overcast
1:34 PM 53.6 °F 53.6 °F 100% 29.83 in 6.0 mi WNW 12.7 mph 23.0 mph N/A Rain Light Rain
1:44 PM 53.6 °F 53.6 °F 100% 29.82 in 6.0 mi WNW 18.4 mph 24.2 mph N/A Rain Light Rain
1:58 PM 52.2 °F 52.2 °F 100% 29.84 in 5.0 mi WNW 18.4 mph 29.9 mph 0.01 in Rain Light Rain
2:03 PM 51.8 °F 51.8 °F 100% 29.84 in 6.0 mi WNW 19.6 mph 25.3 mph N/A Rain Light Rain
2:15 PM 51.8 °F 51.8 °F 100% 29.85 in 7.0 mi WNW 19.6 mph 27.6 mph N/A   Overcast
2:18 PM 51.8 °F 51.8 °F 100% 29.85 in 7.0 mi WNW 19.6 mph - N/A Rain Light Rain
2:32 PM 51.8 °F 51.8 °F 100% 29.85 in 10.0 mi NW 18.4 mph 26.5 mph N/A   Overcast
2:42 PM 51.8 °F 51.8 °F 100% 29.86 in 10.0 mi WNW 17.3 mph 28.8 mph N/A   Overcast
2:47 PM 51.8 °F 51.8 °F 100% 29.86 in 10.0 mi WNW 20.7 mph 26.5 mph N/A   Overcast
2:52 PM 51.8 °F 51.8 °F 100% 29.86 in 10.0 mi WNW 23.0 mph 28.8 mph N/A Rain Light Rain
2:58 PM 51.1 °F 51.1 °F 100% 29.87 in 10.0 mi WNW 17.3 mph 32.2 mph 0.00 in Rain Light Rain
3:01 PM 51.8 °F 51.8 °F 100% 29.86 in 10.0 mi NW 19.6 mph 32.2 mph N/A   Overcast
3:58 PM 51.1 °F 50.7 °F 99% 29.91 in 10.0 mi NW 18.4 mph 27.6 mph 0.00 in   Overcast
4:38 PM 51.8 °F 51.8 °F 100% 29.90 in 10.0 mi WNW 21.9 mph 29.9 mph N/A   Overcast
4:43 PM 51.8 °F 51.8 °F 100% 29.90 in 10.0 mi WNW 19.6 mph 29.9 mph N/A   Overcast
4:58 PM 50.5 °F 50.4 °F 99% 29.93 in 10.0 mi NW 18.4 mph 26.5 mph N/A   Overcast
5:18 PM 50.0 °F 50.0 °F 100% 29.91 in 10.0 mi WNW 17.3 mph 24.2 mph N/A Rain Light Rain
5:34 PM 50.0 °F 50.0 °F 100% 29.92 in 9.0 mi NW 17.3 mph 23.0 mph N/A   Overcast
5:43 PM 50.0 °F 50.0 °F 100% 29.93 in 6.0 mi NW 18.4 mph 27.6 mph N/A Rain Light Rain
5:48 PM 48.2 °F 48.2 °F 100% 29.93 in 8.0 mi NW 18.4 mph 27.6 mph N/A Rain Light Rain
5:53 PM 48.2 °F 48.2 °F 100% 29.94 in 10.0 mi WNW 16.1 mph 26.5 mph N/A Rain Light Rain
5:56 PM 48.2 °F 48.2 °F 100% 29.94 in 10.0 mi NW 16.1 mph 25.3 mph N/A   Overcast
5:58 PM 48.2 °F 48.2 °F 100% 29.96 in 10.0 mi NW 20.7 mph 25.3 mph 0.00 in   Overcast
6:03 PM 48.2 °F 48.2 °F 100% 29.94 in 10.0 mi NW 17.3 mph 25.3 mph N/A   Overcast
6:13 PM 48.2 °F 48.2 °F 100% 29.94 in 10.0 mi NW 11.5 mph - N/A   Overcast
6:58 PM 48.4 °F 48.2 °F 99% 29.98 in 10.0 mi NW 16.1 mph 25.3 mph N/A   Overcast
7:33 PM 48.2 °F 48.2 °F 100% 29.96 in 10.0 mi NW 18.4 mph 26.5 mph N/A   Overcast
7:53 PM 48.2 °F 48.2 °F 100% 29.96 in 10.0 mi NW 15.0 mph 25.3 mph N/A   Overcast
7:58 PM 48.2 °F 47.8 °F 99% 29.99 in 10.0 mi NW 15.0 mph 25.3 mph N/A   Overcast
8:23 PM 48.2 °F 48.2 °F 100% 29.97 in 10.0 mi NW 19.6 mph 24.2 mph N/A   Overcast
8:58 PM 48.6 °F 48.2 °F 99% 30.01 in 10.0 mi NW 19.6 mph 27.6 mph N/A   Overcast
9:48 PM 48.2 °F 46.4 °F 93% 30.01 in 10.0 mi NW 16.1 mph 24.2 mph N/A   Overcast
9:58 PM 48.6 °F 46.8 °F 93% 30.04 in 10.0 mi NW 17.3 mph 26.5 mph N/A   Overcast
10:58 PM 48.6 °F 46.6 °F 93% 30.06 in 10.0 mi NW 16.1 mph 23.0 mph N/A   Overcast
11:43 PM 48.2 °F 46.4 °F 93% 30.03 in 10.0 mi NW 15.0 mph 20.7 mph N/A   Overcast
11:58 PM 48.4 °F 47.3 °F 96% 30.05 in 10.0 mi NW 11.5 mph 21.9 mph N/A   Overcast